Weather History for Key West, FL

Change the Weather History Date:

Thursday, January 10, 2013

  Actual Average Record
Temperature  
Mean Temperature 79 °F 69 °F  
Max Temperature 81 °F 74 °F 84 °F (1993)
Min Temperature 76 °F 64 °F 45 °F (1996)
Degree Days  
Heating Degree Days 0 1  
Month to date heating degree days 0 10  
Since 1 July heating degree days 4 28  
Cooling Degree Days 14 5  
Month to date cooling degree days 115 52  
Year to date cooling degree days 115 52  
Growing Degree Days 28 (Base 50)    
Moisture  
Dew Point 69 °F    
Average Humidity 75    
Maximum Humidity 82    
Minimum Humidity 67    
Precipitation  
Precipitation 0.00 in 0.07 in 2.33 in (1988)
Month to date precipitation T 0.62  
Year to date precipitation T 0.62  
Snow  
Snow 0.00 in - - ()
Month to date snowfall 0.0  
Since 1 July snowfall 0.0  
Snow Depth 0.00 in    
Sea Level Pressure  
Sea Level Pressure 30.20 in    
Wind  
Wind Speed 16 mph (East)    
Max Wind Speed 24 mph    
Max Gust Speed 30 mph    
Visibility 10 miles    
Events      
T = Trace of Precipitation, MM = Missing Value Source: NWS Daily Summary

Daily Weather History Graph

Daily Weather History Graph

Search for Another Location

Airport:

Trip Planner

Search our weather history database for the weather conditions in past years. The results will help you decide how hot, cold, wet, or windy it might be!

Date:

Astronomy

Jan. 10, 2013 Rise Set
Actual Time 7:12 AM EST 5:56 PM EST
Civil Twilight 6:48 AM EST 6:21 PM EST
Nautical Twilight 6:20 AM EST 6:49 PM EST
Astronomical Twilight 5:52 AM EST 7:17 PM EST
Moon 5:52 AM EST (1/10) 5:01 PM EST (1/10)
Length of Visible Light 11h 32m
Length of Day
10h 43m
Waning Crescent, 2% of the Moon is Illuminated
Jan 10
Waning Crescent
Jan 11
New
Jan 18
First Quarter
Jan 26
Full
Feb 3
Last Quarter

Hourly Weather History & Observations

Time (EST) Temp. Heat Index Dew Point Humidity Pressure Visibility Wind Dir Wind Speed Gust Speed Precip Events Conditions
12:53 AM 77.0 °F - 71.1 °F 82% 30.21 in 10.0 mi ESE 17.3 mph 25.3 mph N/A   Partly Cloudy
1:53 AM 77.0 °F - 71.1 °F 82% 30.21 in 10.0 mi East 17.3 mph - N/A   Partly Cloudy
2:53 AM 77.0 °F - 70.0 °F 79% 30.20 in 10.0 mi East 18.4 mph 26.5 mph N/A   Partly Cloudy
3:53 AM 75.9 °F - 70.0 °F 82% 30.20 in 10.0 mi East 17.3 mph - N/A   Partly Cloudy
4:53 AM 75.9 °F - 70.0 °F 82% 30.20 in 10.0 mi East 15.0 mph - N/A   Partly Cloudy
5:53 AM 75.9 °F - 70.0 °F 82% 30.21 in 10.0 mi East 15.0 mph 21.9 mph N/A   Partly Cloudy
6:53 AM 75.9 °F - 69.1 °F 79% 30.22 in 10.0 mi East 15.0 mph 20.7 mph N/A   Clear
7:53 AM 75.9 °F - 69.1 °F 79% 30.23 in 10.0 mi East 16.1 mph 23.0 mph N/A   Partly Cloudy
8:53 AM 77.0 °F - 69.1 °F 76% 30.24 in 10.0 mi East 17.3 mph 24.2 mph N/A   Clear
9:53 AM 79.0 °F - 69.1 °F 72% 30.25 in 10.0 mi ESE 16.1 mph - N/A   Clear
10:53 AM 79.0 °F - 68.0 °F 69% 30.23 in 10.0 mi East 19.6 mph - N/A   Clear
11:53 AM 80.1 °F 82.7 °F 68.0 °F 67% 30.19 in 10.0 mi East 19.6 mph 26.5 mph N/A   Clear
12:53 PM 80.1 °F 83.2 °F 70.0 °F 71% 30.15 in 10.0 mi ESE 19.6 mph 25.3 mph N/A   Clear
1:53 PM 80.1 °F 83.2 °F 70.0 °F 71% 30.13 in 10.0 mi ESE 20.7 mph - N/A   Partly Cloudy
2:53 PM 80.1 °F 82.9 °F 69.1 °F 69% 30.15 in 10.0 mi East 18.4 mph 24.2 mph N/A   Partly Cloudy
3:53 PM 79.0 °F - 69.1 °F 72% 30.17 in 10.0 mi East 16.1 mph 21.9 mph N/A   Scattered Clouds
4:53 PM 78.1 °F - 69.1 °F 74% 30.19 in 10.0 mi East 15.0 mph 21.9 mph N/A   Clear
5:53 PM 77.0 °F - 68.0 °F 74% 30.20 in 10.0 mi East 16.1 mph 21.9 mph N/A   Clear
6:53 PM 75.9 °F - 68.0 °F 76% 30.22 in 10.0 mi East 9.2 mph 18.4 mph N/A   Partly Cloudy
7:53 PM 75.9 °F - 69.1 °F 79% 30.21 in 10.0 mi East 9.2 mph 17.3 mph N/A   Partly Cloudy
8:53 PM 77.0 °F - 66.9 °F 71% 30.21 in 10.0 mi East 16.1 mph - N/A   Partly Cloudy
9:53 PM 75.9 °F - 68.0 °F 76% 30.22 in 10.0 mi East 10.4 mph 19.6 mph N/A   Clear
10:53 PM 75.9 °F - 70.0 °F 82% 30.22 in 10.0 mi East 9.2 mph - N/A   Partly Cloudy
11:53 PM 75.9 °F - 70.0 °F 82% 30.22 in 10.0 mi East 11.5 mph - N/A   Partly Cloudy